Regional Weather Roundup
Issued by NWS

Home | Current Version | Previous Version | Graphics & Text | Print | Product List | Glossary On
Versions: 1 2 3 4 5 6 7 8 9 10 11 12 13 14 15 16 17 18 19 20 21 22 23 24 25 26 27 28 29 30 31 32 33 34 35 36 37 38 39 40 41 42 43 44 45 46 47 48 49 50
000
ASUS43 KMKX 102011
RWRWI

WISCONSIN REGIONAL WEATHER ROUNDUP
NATIONAL WEATHER SERVICE MILWAUKEE/SULLIVAN WI
200 PM CST SAT DEC 10 2016

NOTE: "FAIR" INDICATES FEW OR NO CLOUDS BELOW 12,000 FEET WITH NO
SIGNIFICANT WEATHER AND/OR OBSTRUCTIONS TO VISIBILITY.

WIZ001-002-006>008-014>016-023>028-102100-
NORTHWEST WISCONSIN

CITY           SKY/WX    TMP DP  RH WIND       PRES   REMARKS
SUPERIOR ARPT  CLOUDY    11  -2  57 CALM      30.39F
ASHLAND        PTSUNNY   10  -1  61 VRB3      30.38F
HAYWARD        CLOUDY    12  -1  56 SW7       30.32F WCI   1
SIREN          PTSUNNY   12   1  62 SW5       30.35F WCI   4
CUMBERLAND     CLOUDY    10   1  67 S5        30.33S WCI   2
RICE LAKE      PTSUNNY   11   2  66 S5        30.35F WCI   3
CHETEK         CLOUDY    11   1  64 S5        30.34F WCI   3
LADYSMITH      CLOUDY    12   2  65 S3        30.36R
EAU CLAIRE     MOSUNNY   14   3  61 CALM      30.35F
MENOMONIE      CLOUDY    13   4  67 CALM      30.36F
NEW RICHMOND   MOSUNNY   12   1  62 CALM      30.35F
OSCEOLA        PTSUNNY   12   3  66 CALM      30.39S
$$

WIZ003>005-009-010-017-018-102100-
NORTH CENTRAL WISCONSIN

CITY           SKY/WX    TMP DP  RH WIND       PRES   REMARKS
MANITOWISH WTR MOSUNNY    6  -3  65 CALM      30.27F
ARBOR VITAE    SUNNY     11   1  64 CALM      30.27F
WOODRUFF       SUNNY     11   1  64 CALM      30.27F
RHINELANDER    SUNNY     11  -2  56 SW3       30.28F
EAGLE RIVER    SUNNY     10  -4  54 CALM      30.28S
LAND O LAKES   SUNNY     11  -1  58 W5        30.29S WCI   2
PHILLIPS       CLOUDY     9  -1  61 CALM      30.29F
TOMAHAWK       SUNNY     11  -1  57 CALM      30.29F
MEDFORD        CLOUDY    10   0  65 S5        30.30S WCI   1
MERRILL        SUNNY     11  -1  58 CALM      30.32F
$$

WIZ029-030-035-036-043>047-102100-
CENTRAL WISCONSIN

CITY           SKY/WX    TMP DP  RH WIND       PRES   REMARKS
WAUSAU         CLOUDY    11   1  64 NW3       30.32F
MOSINEE        PTSUNNY   12   3  67 W5        30.34F WCI   4
MARSHFIELD     CLOUDY    13   2  61 VRB3      30.31F
STEVENS POINT  CLOUDY    14   2  58 W3        30.34F
WAUPACA        CLOUDY    20   4  48 CALM      30.37F
WAUTOMA        CLOUDY    16   7  67 SW7       30.38F WCI   6
WISC RAPIDS    MOSUNNY   14   4  64 SW5       30.35F WCI   6
CAMP DOUGLAS   PTSUNNY   16   5  62 CALM      30.35F
$$

WIZ011>013-019>022-031-037>040-048>050-102100-
NORTHEAST WISCONSIN

CITY           SKY/WX    TMP DP  RH WIND       PRES   REMARKS
ANTIGO         SUNNY     11  -2  56 CALM      30.29F
SHAWANO        SUNNY     19   4  52 W6        30.36F WCI  11
OCONTO         SUNNY     17   2  52 NW7       30.37F WCI   8
STURGEON BAY   SUNNY     18   6  59 NW9       30.37F WCI   7
GREEN BAY      SUNNY     21   7  54 W8        30.37F WCI  11
MANITOWOC      SUNNY     20   7  57 MISG      30.38F
APPLETON       PTSUNNY   18   1  49 W8        30.35F WCI   7
CLINTONVILLE   SUNNY     18   5  57 W7        30.36F WCI   8
OSHKOSH        CLOUDY    18   6  59 W7        30.37F WCI   9
$$

WIZ032>034-041-042-053>061-102100-
SOUTHWEST WISCONSIN

CITY           SKY/WX    TMP DP  RH WIND       PRES   REMARKS
LA CROSSE      LGT SNOW  17   7  64 VRB3      30.38F
SPARTA         CLOUDY    17   7  65 CALM      30.36F
VIROQUA        CLOUDY    14   3  63 SE3       30.32F
BOSCOBEL       LGT SNOW  20  14  77 VRB3      30.39S VSB 1
PRAIRIE DU CHI LGT SNOW  19  14  79 E6        30.38F WCI  11
PLATTEVILLE    CLOUDY    20  17  89 SE5       30.36F WCI  14
$$

WIZ056-057-062-063-064-067-068-102100-
SOUTH CENTRAL WISCONSIN

CITY           SKY/WX    TMP DP  RH WIND       PRES   REMARKS
REEDSBURG      CLOUDY    17   6  63 CALM      30.36F
BARABOO/DELLS  PTSUNNY   18   6  59 CALM      30.35F
LONE ROCK      CLOUDY    20   8  60 CALM      30.38F
MINERAL POINT  LGT SNOW  21  16  79 CALM      30.34F
MADISON        CLOUDY    19  10  68 E3        30.37F
MIDDLETON      MOSUNNY   22  12  66 S6        30.37F WCI  14
WATERTOWN      MOSUNNY   20  10  66 CALM      30.37F
MONROE         CLOUDY    21  14  73 S5        30.37S WCI  15
JANESVILLE     CLOUDY    23  14  68 W3        30.38F
$$

WIZ051-052-058>065-066-070>072-102100-
SOUTHEAST WISCONSIN

CITY           SKY/WX    TMP DP  RH WIND       PRES   REMARKS
MILWAUKEE      CLOUDY    24  10  55 W10       30.40F WCI  14
WAUKESHA       MOSUNNY   19  10  68 CALM      30.39F
MILWAUKEE/TIMM SUNNY     21   7  53 W10       30.40F WCI  10
RACINE         CLOUDY    24  11  57 SW8       30.42F WCI  15
BURLINGTON     CLOUDY    27  18  70 CALM      30.39F
KENOSHA        CLOUDY    23  13  65 W9        30.40F WCI  13
FOND DU LAC    PTSUNNY   18   6  59 VRB7      30.39F WCI   9
SHEBOYGAN      SUNNY     20   7  57 W10       30.38F WCI   9
WEST BEND      CLOUDY    19   9  63 W7        30.39S WCI  10
JUNEAU         MOSUNNY   17   8  67 SW6       30.39S WCI   8
$$

LSZ147-162-102100-
LAKE SUPERIOR

STATION/POSITION TIME  TEMP    WIND        PRES    WAVE
                       AIR SEA DIR/SP/G            HT/PER
                 (UTC) (F)     (DEG/KT/KT) (MB)    (FT/S)
DEVILS ISLAND    2000   11     260/ 11/ 15 1030.1F
PORT WING        1940   11     210/  3/  6 1028.8F
SAXON HARBOR     1940   11     240/  1/  5 1028.8F
$$

LMZ867-665-643>646-102100-
LAKE MICHIGAN

STATION/POSITION TIME  TEMP    WIND        PRES    WAVE
                       AIR SEA DIR/SP/G            HT/PER
                 (UTC) (F)     (DEG/KT/KT) (MB)    (FT/S)
CHAMBERS ISLAND  1940   20     240/  6/  9 1027.4F
NORTHPORT PIER   1940   22     280/  4/ 12 1027.8S
SISTER BAY       1950   28     310/ 12/ 15   N/A
KEWAUNEE LAKESHO 1942   19     310/  7/ 10 1028.0F
SHEBOYGAN LAKESH 2000   19     290/  6/  9 1030.1F
PORT WASHINGTON  1940   21     290/  6/ 12 1030.5F
KENOSHA   LAKESH 2000   23     260/  9/ 12 1029.8
$$

TC  - TEMPERATURE IN CELSIUS
VSB - VISIBILITY IN STATUTE MILES
WCI - WIND CHILL INDEX
HX  - HEAT INDEX





USA.gov is the U.S. government's official web portal to all federal, state and local government web resources and services.